GW1920 Weather Reports


Display with metric or nautical units.
time (UTC)temp
F
wind
direction
speed
MPH
gust
MPH
rain 1hr
in
rain 24hr
in
rain mn
in
humidity
%
barometer
mb
20260506163407 54 350 0.0 0.0 0.00 0.03 0.03 99 1016.4
20260506162902 54 348 0.0 0.0 0.00 0.03 0.03 98 1016.5
20260506162400 54 345 0.0 0.0 0.00 0.03 0.03 98 1016.5
20260506161852 53 345 0.0 0.0 0.00 0.03 0.03 98 1016.2
20260506161349 53 347 0.0 0.0 0.00 0.03 0.03 99 1016.4
20260506160842 53 346 0.0 0.0 0.00 0.03 0.03 99 1016.7
20260506160339 53 357 0.0 0.0 0.00 0.03 0.03 99 1016.5
20260506155837 53 357 0.0 0.0 0.00 0.03 0.03 99 1016.6
20260506155333 53 357 0.0 0.0 0.00 0.03 0.03 99 1016.5
20260506153450 53 354 0.0 0.0 0.00 0.03 0.03 99 1016.6
20260506152948 53 356 0.0 0.0 0.00 0.03 0.03 99 1016.8
20260506152445 52 356 0.0 0.0 0.00 0.03 0.03 99 1016.5
20260506151943 53 6 0.0 0.0 0.00 0.03 0.03 99 1016.6
20260506151440 53 6 0.0 0.0 0.00 0.03 0.03 99 1016.7
20260506150938 53 6 0.0 0.0 0.00 0.03 0.03 99 1016.9
20260506150433 53 6 0.0 0.0 0.00 0.03 0.03 99 1016.7
20260506145931 52 6 0.0 0.0 0.07 0.03 0.03 99 1016.7
20260506145427 52 6 0.0 0.0 0.07 0.03 0.03 99 1016.4
20260506144925 52 6 0.0 0.0 0.00 0.02 0.02 99 1016.4
20260506144421 53 6 0.0 0.0 0.00 0.02 0.02 99 1016.5
20260506143920 52 6 0.0 0.0 0.00 0.02 0.02 99 1016.6
20260506143416 52 6 0.0 0.0 0.00 0.02 0.02 99 1016.2
20260506142914 52 6 0.0 0.0 0.00 0.02 0.02 99 1016.3
20260506142412 52 6 0.0 0.0 0.00 0.02 0.02 99 1016.1
20260506141910 52 6 0.0 0.0 0.00 0.02 0.02 99 1016.1
20260506141408 52 6 0.0 0.0 0.00 0.02 0.02 99 1016.2
20260506140906 52 6 0.0 0.0 0.00 0.02 0.02 99 1016.0
20260506140402 52 6 0.0 0.0 0.00 0.02 0.02 99 1016.1
20260506135900 52 6 0.0 0.0 0.00 0.02 0.02 99 1016.0
20260506135356 52 6 0.0 0.0 0.00 0.02 0.02 99 1016.0
20260506134852 52 6 0.0 0.0 0.00 0.02 0.02 99 1015.8
20260506134349 52 6 0.0 0.0 0.00 0.02 0.02 99 1015.8
20260506133846 52 6 0.0 0.0 0.00 0.02 0.02 99 1015.9
20260506133342 52 6 0.0 0.0 0.00 0.02 0.02 99 1015.5
20260506132839 52 6 0.0 0.0 0.00 0.02 0.02 99 1015.6
20260506132336 52 6 0.0 0.0 0.00 0.02 0.02 99 1015.5
20260506131835 52 6 0.0 0.0 0.00 0.02 0.02 99 1015.6
20260506131330 52 6 0.0 0.0 0.00 0.02 0.02 99 1015.4
20260506130828 52 6 0.0 0.0 0.00 0.02 0.02 99 1015.5
20260506130324 52 6 0.0 0.0 0.00 0.02 0.02 99 1015.6
20260506125822 52 6 0.0 0.0 0.00 0.02 0.02 99 1015.6
20260506125320 52 6 0.0 0.0 0.00 0.02 0.02 99 1015.7
20260506124818 52 6 0.0 0.0 0.00 0.02 0.02 99 1015.5
20260506124315 52 6 0.0 0.0 0.00 0.02 0.02 99 1015.6
20260506123813 52 6 0.0 0.0 0.00 0.02 0.02 99 1015.6
20260506123311 52 6 0.0 0.0 0.00 0.02 0.02 99 1015.6
20260506122808 52 6 0.0 0.0 0.00 0.02 0.02 99 1015.4
20260506122306 52 6 0.0 0.0 0.00 0.02 0.02 99 1015.6
20260506121803 52 6 0.0 0.0 0.05 0.02 0.02 99 1015.4
20260506121259 52 6 0.0 0.0 0.05 0.02 0.02 99 1015.2
20260506120757 52 6 0.0 0.0 0.05 0.02 0.02 99 1015.2
20260506120254 52 6 0.0 0.0 0.00 0.01 0.01 99 1015.2
20260506115752 52 6 0.0 0.0 0.00 0.01 0.01 99 1015.1
20260506115250 52 6 0.0 0.0 0.00 0.01 0.01 99 1015.3
20260506114747 52 6 0.0 0.0 0.00 0.01 0.01 99 1015.3
20260506114245 52 6 0.0 0.0 0.00 0.01 0.01 99 1015.2
20260506113743 52 6 0.0 0.0 0.00 0.01 0.01 99 1015.2
20260506113240 52 6 0.0 0.0 0.00 0.01 0.01 99 1015.0
20260506112736 53 6 0.0 0.0 0.00 0.01 0.01 99 1015.1
20260506112234 53 6 0.0 0.0 0.00 0.01 0.01 99 1015.1
20260506111731 53 6 0.0 0.0 0.00 0.01 0.01 99 1015.2
20260506111230 53 6 0.0 0.0 0.07 0.01 0.01 99 1014.8
20260506110726 53 6 0.0 0.0 0.07 0.01 0.01 99 1015.0
20260506110224 53 6 0.0 0.0 0.00 0.00 0.00 99 1015.0
20260506105720 53 6 0.0 0.0 0.00 0.00 0.00 99 1014.7
20260506105217 53 6 0.0 0.0 0.00 0.00 0.00 99 1014.7
20260506104715 53 6 0.0 0.0 0.00 0.00 0.00 99 1014.8
20260506104213 53 6 0.0 0.0 0.00 0.00 0.00 99 1014.8
20260506103709 53 6 0.0 0.0 0.00 0.00 0.00 99 1014.6
20260506103206 53 6 0.0 0.0 0.00 0.00 0.00 99 1014.6
20260506102705 53 6 0.0 0.0 0.00 0.00 0.00 99 1014.5
20260506102202 53 6 0.0 0.0 0.00 0.00 0.00 99 1014.4
20260506101659 53 6 0.0 0.0 0.00 0.00 0.00 99 1014.1
20260506101155 53 6 0.0 0.0 0.00 0.00 0.00 99 1014.1
20260506100654 53 6 0.0 0.0 0.00 0.00 0.00 99 1014.2
20260506100151 53 6 0.0 0.0 0.00 0.00 0.00 99 1014.3
20260506095650 53 6 0.0 0.0 0.00 0.00 0.00 99 1014.3
20260506095146 53 6 0.0 0.0 0.00 0.00 0.00 99 1014.2
20260506094643 53 6 0.0 0.0 0.00 0.00 0.00 99 1014.1
20260506094141 53 6 0.0 0.0 0.00 0.00 0.00 99 1014.2
20260506093640 53 6 0.0 0.0 0.00 0.00 0.00 99 1014.1
20260506093136 53 6 0.0 0.0 0.00 0.00 0.00 99 1014.2
20260506092634 53 6 0.0 0.0 0.00 0.00 0.00 99 1014.0
20260506092131 53 6 0.0 0.0 0.00 0.00 0.00 99 1014.0
20260506091629 53 6 0.0 0.0 0.00 0.00 0.00 99 1014.0
20260506091126 53 6 0.0 0.0 0.00 0.00 0.00 99 1014.0
20260506090624 53 6 0.0 0.0 0.00 0.00 0.00 99 1014.0
20260506090120 53 6 0.0 0.0 0.00 0.00 0.00 99 1014.1
20260506085617 53 6 0.0 0.0 0.00 0.00 0.00 99 1013.9
20260506085114 53 6 0.0 0.0 0.00 0.00 0.00 99 1014.2
20260506084610 53 6 0.0 0.0 0.00 0.00 0.00 99 1014.0
20260506084107 53 6 0.0 0.0 0.00 0.00 0.00 99 1014.0
20260506083604 53 6 0.0 0.0 0.00 0.00 0.00 99 1013.9
20260506083102 53 6 0.0 0.0 0.00 0.00 0.00 99 1013.7
20260506082558 53 6 0.0 0.0 0.00 0.00 0.00 99 1014.0
20260506082054 53 6 0.0 0.0 0.00 0.00 0.00 99 1014.0
20260506081552 53 6 0.0 0.0 0.00 0.00 0.00 99 1013.9
20260506081049 53 6 0.0 0.0 0.00 0.00 0.00 99 1013.8
20260506080547 53 6 0.0 0.0 0.00 0.00 0.00 99 1013.7
20260506073027 53 6 0.0 0.0 0.00 0.00 0.00 99 1013.4
20260506072524 53 6 0.0 0.0 0.00 0.00 0.00 99 1013.3
20260506072022 53 6 0.0 0.0 0.00 0.00 0.00 99 1013.5
20260506071520 53 6 0.0 0.0 0.00 0.00 0.00 99 1013.4
20260506071017 53 6 0.0 0.0 0.00 0.00 0.00 99 1013.3
20260506070514 53 6 0.0 0.0 0.00 0.00 0.00 99 1013.3
20260506062451 53 6 0.0 0.0 0.00 0.00 0.00 99 1013.1
20260506061947 53 6 0.0 0.0 0.00 0.00 0.00 99 1013.2
20260506061444 53 6 0.0 0.0 0.00 0.00 0.00 99 1013.1
20260506060942 53 6 0.0 0.0 0.00 0.00 0.00 99 1013.1
20260506060440 53 6 0.0 0.0 0.00 0.00 0.00 99 1013.1
20260506051412 54 5 0.0 0.0 0.00 0.00 0.00 98 1013.0
20260506050909 54 5 0.0 0.0 0.00 0.00 0.00 98 1013.1
20260506050406 54 5 0.0 0.0 0.00 0.00 0.00 98 1012.9
20260506044857 54 5 0.0 0.0 0.00 0.00 0.00 97 1012.8
20260506044355 54 5 0.0 0.0 0.00 0.00 0.00 97 1012.8
20260506043851 54 5 0.0 0.0 0.00 0.00 0.00 97 1012.8
20260506043348 54 5 0.0 0.0 0.00 0.00 0.00 97 1012.7
20260506042847 54 4 0.0 0.0 0.00 0.00 0.00 97 1012.5
20260506042346 54 4 0.0 0.0 0.00 0.00 0.00 97 1012.6
20260506041844 54 4 0.0 0.0 0.00 0.00 0.00 97 1012.6
20260506041341 54 4 0.0 0.0 0.00 0.00 0.00 96 1012.5
20260506040837 54 4 0.0 0.0 0.00 0.00 0.00 96 1012.4
20260506040335 54 4 0.0 0.0 0.00 0.00 0.00 96 1012.4
20260506035831 54 4 0.0 0.0 0.00 0.00 0.00 96 1012.3
20260506035329 54 4 0.0 0.0 0.00 0.00 0.00 96 1012.3
20260506034826 54 4 0.0 0.0 0.00 0.00 0.00 96 1012.1
20260506034323 54 3 0.0 0.0 0.00 0.00 0.00 96 1012.1
20260506033820 54 345 0.0 0.0 0.00 0.00 0.00 96 1012.2
20260506033317 54 344 0.0 0.0 0.00 0.00 0.00 95 1012.2
20260506032814 54 343 0.0 0.0 0.00 0.00 0.00 95 1012.0
20260506032311 54 344 0.0 0.0 0.00 0.00 0.00 95 1012.0
20260506031807 54 346 0.0 0.0 0.00 0.00 0.00 94 1012.0
20260506031305 55 347 0.0 0.0 0.00 0.00 0.00 94 1012.0
20260506030802 55 347 0.0 0.0 0.00 0.00 0.00 94 1011.7
20260506030300 55 346 0.0 0.0 0.00 0.00 0.00 94 1012.1
20260506025757 55 348 0.0 0.0 0.00 0.00 0.00 94 1011.9
20260506025253 55 347 0.0 0.0 0.00 0.00 0.00 94 1011.8
20260506024750 55 348 0.0 1.0 0.00 0.00 0.00 94 1011.6
20260506024247 55 348 0.0 0.0 0.00 0.00 0.00 93 1011.9
20260506023743 55 340 1.0 1.0 0.00 0.00 0.00 93 1011.6
20260506023240 55 349 0.0 0.0 0.00 0.00 0.00 93 1011.5
20260506022736 55 348 0.0 0.0 0.00 0.00 0.00 93 1011.5
20260506022235 55 330 1.0 1.0 0.00 0.00 0.00 92 1011.5
20260506021733 55 343 0.0 0.0 0.00 0.00 0.00 92 1011.3
20260506021229 55 348 0.0 0.0 0.00 0.00 0.00 92 1011.4
20260506020726 55 348 0.0 0.0 0.00 0.00 0.00 92 1011.5
20260506020224 55 345 1.0 1.0 0.00 0.00 0.00 91 1011.4
20260506015721 55 347 0.0 0.0 0.00 0.00 0.00 90 1011.3
20260506015218 56 338 0.0 0.0 0.00 0.00 0.00 90 1011.5
20260506014710 56 346 1.0 1.0 0.00 0.00 0.00 90 1011.4
20260506014206 56 348 0.0 0.0 0.00 0.00 0.00 89 1011.4
20260506013704 56 335 1.0 1.0 0.00 0.00 0.00 89 1011.3
20260506013201 56 339 1.0 1.0 0.00 0.00 0.00 89 1011.3
20260506012657 56 332 0.0 0.0 0.00 0.00 0.00 89 1011.3
20260506012154 56 347 0.0 0.0 0.00 0.00 0.00 88 1011.1
20260506011651 56 335 0.0 1.0 0.00 0.00 0.00 89 1011.2
20260506011147 56 339 0.0 0.0 0.00 0.00 0.00 89 1011.4
20260506010646 56 347 0.0 1.0 0.00 0.00 0.00 88 1011.4
20260506010143 56 349 0.0 0.0 0.00 0.00 0.00 88 1011.2
20260506005640 56 348 0.0 0.0 0.00 0.00 0.00 89 1011.4
20260506005137 56 349 0.0 0.0 0.00 0.00 0.00 89 1011.3
20260506004632 56 341 1.0 1.0 0.00 0.00 0.00 88 1011.3
20260506004129 56 345 0.0 0.0 0.00 0.00 0.00 88 1011.3
20260506003620 57 345 1.0 1.0 0.00 0.00 0.00 87 1011.2
20260506003116 57 346 0.0 1.0 0.00 0.00 0.00 88 1011.3
20260506002613 57 329 1.0 1.0 0.00 0.00 0.00 87 1011.2
20260506002108 57 351 1.0 1.0 0.00 0.00 0.00 87 1011.3
20260506001604 57 343 0.0 1.0 0.00 0.00 0.00 86 1011.2
20260506001102 57 336 0.0 0.0 0.00 0.00 0.00 87 1011.4
20260506000559 57 338 0.0 0.0 0.00 0.00 0.00 86 1011.4
20260506000056 57 340 1.0 1.0 0.00 0.00 0.00 86 1011.3
20260505235555 57 347 0.0 0.0 0.00 0.00 0.00 86 1011.3
20260505235051 57 339 1.0 1.0 0.00 0.00 0.00 86 1011.1
20260505234548 57 346 2.0 2.0 0.00 0.00 0.00 86 1011.3
20260505234045 57 347 1.0 1.0 0.00 0.00 0.00 87 1011.3
20260505233543 57 345 1.0 1.0 0.00 0.00 0.00 86 1011.4
20260505233040 57 330 1.0 2.0 0.00 0.00 0.00 87 1011.3
20260505232538 57 344 1.0 1.0 0.00 0.00 0.00 87 1011.7
20260505232035 57 349 0.0 0.0 0.00 0.00 0.00 87 1011.7
20260505231532 57 339 1.0 1.0 0.00 0.00 0.00 87 1011.6
20260505231031 57 332 1.0 1.0 0.00 0.00 0.00 86 1011.6
20260505230527 57 329 1.0 1.0 0.00 0.00 0.00 85 1011.6
20260505230024 57 340 1.0 1.0 0.00 0.00 0.00 86 1011.3
20260505225521 57 0 0.0 0.0 0.00 0.00 0.00 86 1011.6
20260505225017 57 342 1.0 1.0 0.00 0.00 0.00 85 1011.8
20260505224514 57 319 1.0 1.0 0.00 0.00 0.00 85 1011.5
20260505224011 57 335 2.0 2.0 0.00 0.00 0.00 84 1011.7
20260505223508 57 320 2.0 2.0 0.00 0.00 0.00 84 1011.6
20260505223004 57 319 3.0 3.0 0.00 0.00 0.00 83 1011.4
20260505222500 57 346 2.0 2.0 0.00 0.00 0.00 83 1011.8
20260505221955 58 344 0.0 0.0 0.00 0.00 0.00 83 1012.0
20260505221453 58 349 2.0 2.0 0.00 0.00 0.00 84 1011.7
20260505220950 58 338 1.0 2.0 0.00 0.00 0.00 85 1011.8
20260505220447 58 345 0.0 0.0 0.00 0.00 0.00 85 1011.6
20260505215945 58 339 0.0 1.0 0.00 0.00 0.00 84 1011.7
20260505215443 58 344 1.0 2.0 0.00 0.00 0.00 84 1011.6
20260505214940 58 342 1.0 1.0 0.00 0.00 0.00 84 1011.7
20260505214438 58 349 1.0 2.0 0.00 0.00 0.00 85 1011.6
20260505213935 58 341 0.0 1.0 0.00 0.00 0.00 84 1011.3
20260505213433 59 336 1.0 1.0 0.00 0.00 0.00 84 1011.4
20260505212929 59 316 2.0 2.0 0.00 0.00 0.00 82 1011.3
20260505212426 60 320 2.0 2.0 0.00 0.00 0.00 82 1011.2
20260505211922 60 330 1.0 2.0 0.00 0.00 0.00 82 1011.1
20260505211420 59 342 1.0 1.0 0.00 0.00 0.00 83 1011.1
20260505210916 59 311 2.0 2.0 0.00 0.00 0.00 82 1011.3
20260505210413 59 329 2.0 2.0 0.00 0.00 0.00 82 1011.3
20260505205910 58 358 2.0 3.0 0.00 0.00 0.00 83 1011.0
20260505205408 58 332 3.0 3.0 0.00 0.00 0.00 83 1011.3
20260505204905 58 347 2.0 2.0 0.00 0.00 0.00 84 1011.2
20260505204403 58 337 2.0 2.0 0.00 0.00 0.00 83 1011.3
20260505203900 58 352 0.0 1.0 0.00 0.00 0.00 84 1011.2
20260505203356 58 339 1.0 2.0 0.00 0.00 0.00 83 1011.2
20260505202852 58 326 2.0 2.0 0.00 0.00 0.00 83 1011.1
20260505202349 58 327 1.0 2.0 0.00 0.00 0.00 85 1011.1
20260505201845 58 342 3.0 3.0 0.00 0.00 0.00 83 1011.3
20260505201343 59 357 0.0 0.0 0.00 0.00 0.00 85 1011.2
20260505200841 58 346 0.0 0.0 0.00 0.00 0.00 85 1011.2
20260505200338 58 0 0.0 0.0 0.00 0.00 0.00 84 1011.2
20260505195833 58 343 0.0 0.0 0.00 0.00 0.00 87 1011.3
20260505195330 58 337 1.0 1.0 0.00 0.00 0.00 86 1011.2
20260505194827 57 347 0.0 1.0 0.00 0.00 0.00 86 1011.3
20260505194325 57 350 1.0 1.0 0.00 0.00 0.00 87 1011.1
20260505193820 57 355 0.0 0.0 0.00 0.00 0.00 87 1011.3
20260505193318 57 352 1.0 1.0 0.00 0.00 0.00 87 1011.2
20260505192816 57 354 0.0 0.0 0.00 0.00 0.00 86 1011.4
20260505192314 57 353 0.0 0.0 0.00 0.00 0.00 86 1011.3
20260505191811 57 355 0.0 0.0 0.00 0.00 0.00 87 1011.3
20260505191309 57 355 1.0 1.0 0.00 0.00 0.00 86 1011.5
20260505190806 57 355 0.0 0.0 0.00 0.00 0.00 87 1011.3
20260505190301 56 355 0.0 0.0 0.00 0.00 0.00 88 1011.5
20260505185757 56 353 1.0 1.0 0.00 0.00 0.00 88 1011.5
20260505185254 56 355 1.0 1.0 0.00 0.00 0.00 88 1011.5
20260505184750 56 356 0.0 0.0 0.00 0.00 0.00 87 1011.4
20260505184247 56 356 0.0 0.0 0.00 0.00 0.00 90 1011.5
20260505183744 56 355 0.0 0.0 0.00 0.00 0.00 89 1011.2
20260505183241 56 354 0.0 0.0 0.00 0.00 0.00 90 1011.5
20260505182738 56 351 0.0 0.0 0.00 0.00 0.00 91 1011.4
20260505182235 55 352 0.0 0.0 0.00 0.00 0.00 91 1011.4
20260505181731 55 354 0.0 0.0 0.00 0.00 0.00 91 1011.5
20260505181229 55 354 0.0 0.0 0.00 0.00 0.00 91 1011.4
20260505180725 55 354 0.0 0.0 0.00 0.00 0.00 92 1011.2
20260505180222 56 353 1.0 1.0 0.00 0.00 0.00 92 1011.4
20260505175718 56 356 0.0 0.0 0.00 0.00 0.00 92 1011.4
20260505175214 56 356 0.0 0.0 0.00 0.00 0.00 92 1011.3
20260505174711 55 356 0.0 0.0 0.00 0.00 0.00 93 1011.5
20260505174208 55 354 1.0 1.0 0.00 0.00 0.00 92 1011.2
20260505173704 55 354 1.0 1.0 0.00 0.00 0.00 92 1011.0
20260505173201 55 354 1.0 1.0 0.00 0.00 0.00 92 1011.0
20260505172658 55 353 1.0 1.0 0.00 0.00 0.00 92 1011.0
20260505172155 55 356 0.0 1.0 0.00 0.00 0.00 92 1010.9
20260505171655 55 354 0.0 1.0 0.00 0.00 0.00 91 1011.1
20260505171153 55 348 2.0 2.0 0.00 0.00 0.00 91 1011.1
20260505170650 56 355 1.0 1.0 0.00 0.00 0.00 91 1011.2
20260505170147 56 356 0.0 0.0 0.00 0.00 0.00 91 1011.1
20260505165646 56 355 1.0 2.0 0.00 0.00 0.00 91 1011.0
20260505165142 56 358 0.0 0.0 0.00 0.00 0.00 91 1011.1
20260505164638 56 358 0.0 0.0 0.00 0.00 0.00 92 1010.9
20260505164136 56 358 0.0 0.0 0.00 0.00 0.00 92 1011.0
20260505163634 55 354 0.0 0.0 0.00 0.00 0.00 92 1010.8